Location: Peterborough
(44.3091°N, 78.3197°W)
Time: 01:18:25
(UTC-04:00)

Vanguard 2 - Pass Details

Date: 28 March 2023
Orbit: 552 x 2926 km, 32.9° (Epoch: 02 June)

Event Time Altitude Azimuth Distance (km) Brightness Sun altitude
Rises 05:15:43 0° 223° (SW) 6,543 - -19.2°
Reaches altitude 10° 05:20:21 10° 216° (SW) 5,666 - -18.4°
Exits shadow 05:21:15 12° 215° (SW) 5,502 11.4 -18.3°
Maximum altitude 05:35:53 39° 156° (SSE) 3,736 11.0 -15.9°
Drops below altitude 10° 05:49:23 10° 95° (E) 4,971 12.8 -13.6°
Sets 05:53:06 0° 88° (E) 5,699 13.6 -12.9°
